Location: Bonningues
(50.7927°N, 2.0150°E)
Time: 03:51:41
(UTC+00:00)

NOSS 3-2 (C) - Pass Details

Date: 08 August 2020
Orbit: 800 x 1413 km, 63.4° (Epoch: 15 September)

Event Time Altitude Azimuth Distance (km) Brightness Sun altitude
Exits shadow 21:35:52 23° 168° (SSE) 1,768 4.3 -16.5°
Maximum altitude 21:38:43 38° 118° (ESE) 1,385 3.9 -16.8°
Drops below altitude 10° 21:44:36 10° 53° (NE) 2,807 5.9 -17.3°
Sets 21:47:34 0° 46° (NE) 3,864 6.8 -17.6°
